User: anonymous   Login
Location: Eyeline Observatory
(43.2182°N, 78.8632°W)
Time: 14:12:49
(UTC-04:00)
Language:

Envisat - Orbit

View from above orbital plane
View from above orbital plane
View from above satellite
View from above satellite

Ground track
Ground track

The orbit data is extracted from the following two-line orbital elements,

1 27386U 02009A   18170.11557016 -.00000019  00000-0  74341-5 0  9995
2 27386  98.1839 204.0858 0001235  93.5996 329.4539 14.37924130853808
Epoch (UTC): 19 June 2018 02:46:25
Eccentricity: 0.0001235
inclination: 98.1839°
perigee height: 764 km
apogee height: 766 km
right ascension of ascending node: 204.0858°
argument of perigee: 93.5996°
revolutions per day: 14.37924130
mean anomaly at epoch: 329.4539°
orbit number at epoch: 85380

The dashed part of the orbit path shows where the satellite is in the earth's shadow,  

DLR